,,,PA_Meas_PMT16A,,PR_Meas_QMR101_102,,RH_Meas_QMH101,,SR_Meas_QMS101,,TA_Meas_QMH101,,GenWind,,GenWind,
date,time,status,PA,status,PR,status,RH,status,SR,status,TA,status,DirAvg,status,SpdAvg,
2014-06-13, 00:00:04,VALID,1007.3,VALID,0,VALID,104,VALID,0,VALID,25.2356,VALID,119,VALID,0,
2014-06-13, 00:01:04,VALID,1007.29,VALID,0,VALID,104,VALID,0,VALID,25.1752,VALID,119,VALID,0,
2014-06-13, 00:02:04,VALID,1007.27,VALID,0,VALID,104,VALID,0,VALID,25.1771,VALID,119,VALID,0.278516,
2014-06-13, 00:03:04,VALID,1007.27,VALID,0,INVALID,109.064,VALID,0,VALID,25.1362,VALID,119,VALID,0.343359,
2014-06-13, 00:04:04,VALID,1007.28,VALID,0,INVALID,109.247,VALID,0,VALID,25.1362,VALID,119,VALID,0.410547,
2014-06-13, 00:05:04,VALID,1007.32,VALID,0,INVALID,109.338,VALID,0,VALID,25.0973,VALID,119,VALID,0.449219,
2014-06-13, 00:06:04,VALID,1007.3,VALID,0,INVALID,109.414,VALID,0,VALID,25.0973,VALID,119,VALID,0.324219,
2014-06-13, 00:07:04,VALID,1007.31,VALID,0,INVALID,109.536,VALID,0,VALID,25.1187,VALID,119,VALID,0.413672,
2014-06-13, 00:08:04,VALID,1007.32,VALID,0,INVALID,109.651,VALID,0,VALID,25.1167,VALID,119,VALID,0.313281,
2014-06-13, 00:09:04,VALID,1007.3,VALID,0,INVALID,109.757,VALID,0,VALID,25.1187,VALID,119,VALID,0.332031,
2014-06-13, 00:10:04,VALID,1007.31,VALID,0,INVALID,109.681,VALID,0,VALID,25.0973,VALID,119,VALID,0.13125,
2014-06-13, 00:11:04,VALID,1007.3,VALID,0,INVALID,109.765,VALID,0.112112,VALID,25.1167,VALID,119,VALID,0.212109,
2014-06-13, 00:12:04,VALID,1007.28,VALID,0,INVALID,109.895,VALID,0,VALID,25.0954,VALID,119,VALID,0,
2014-06-13, 00:13:04,VALID,1007.25,VALID,0,INVALID,109.948,VALID,0.112112,VALID,25.0778,VALID,119,VALID,0,
2014-06-13, 00:14:04,VALID,1007.27,VALID,0,INVALID,109.933,VALID,0.112112,VALID,25.0564,VALID,119,VALID,0.135937,
2014-06-13, 00:15:04,VALID,1007.26,VALID,0,INVALID,109.918,VALID,0.112112,VALID,25.0564,VALID,119,VALID,0.132031,
2014-06-13, 00:16:04,VALID,1007.24,VALID,0,INVALID,109.902,VALID,0.112112,VALID,25.0193,VALID,119,VALID,0,
2014-06-13, 00:17:04,VALID,1007.25,VALID,0,INVALID,109.887,VALID,0,VALID,24.9803,VALID,119,VALID,0,
2014-06-13, 00:18:04,VALID,1007.25,VALID,0,INVALID,109.91,VALID,0.112112,VALID,24.9589,VALID,119,VALID,0,
2014-06-13, 00:19:04,VALID,1007.23,VALID,0,INVALID,109.986,VALID,0.112112,VALID,24.9394,VALID,119,VALID,0,
2014-06-13, 00:20:04,VALID,1007.22,VALID,0,INVALID,110.055,VALID,0.112112,VALID,24.9199,VALID,119,VALID,0,
2014-06-13, 00:21:04,VALID,1007.22,VALID,0,INVALID,110.093,VALID,0.112112,VALID,24.9023,VALID,119,VALID,0,
2014-06-13, 00:22:04,VALID,1007.22,VALID,0,INVALID,110.169,VALID,0,VALID,24.9023,VALID,119,VALID,0,
2014-06-13, 00:23:04,VALID,1007.19,VALID,0,INVALID,110.238,VALID,0.112112,VALID,24.9023,VALID,119,VALID,0,
2014-06-13, 00:24:04,VALID,1007.22,VALID,0,INVALID,110.291,VALID,0,VALID,24.9023,VALID,119,VALID,0.270703,
2014-06-13, 00:25:04,VALID,1007.21,VALID,0,INVALID,110.383,VALID,0.112112,VALID,24.8828,VALID,119,VALID,0.378906,
2014-06-13, 00:26:04,VALID,1007.21,VALID,0,INVALID,110.406,VALID,0,VALID,24.9042,VALID,119,VALID,0.315625,
2014-06-13, 00:27:04,VALID,1007.2,VALID,0,INVALID,110.451,VALID,0,VALID,24.8633,VALID,119,VALID,0.219531,
2014-06-13, 00:28:04,VALID,1007.2,VALID,0,INVALID,110.505,VALID,0,VALID,24.8633,VALID,119,VALID,0.1875,
2014-06-13, 00:29:04,VALID,1007.2,VALID,0,INVALID,110.558,VALID,0,VALID,24.8438,VALID,119,VALID,0.174609,
2014-06-13, 00:30:04,VALID,1007.19,VALID,0,INVALID,110.581,VALID,0,VALID,24.8652,VALID,119,VALID,0.242188,
2014-06-13, 00:31:04,VALID,1007.18,VALID,0,INVALID,110.581,VALID,0,VALID,24.8457,VALID,119,VALID,0,
2014-06-13, 00:32:04,VALID,1007.2,VALID,0,INVALID,110.596,VALID,0,VALID,24.7854,VALID,119,VALID,0,
2014-06-13, 00:33:04,VALID,1007.21,VALID,0,INVALID,110.604,VALID,0,VALID,24.7854,VALID,119,VALID,0.0835937,
2014-06-13, 00:34:04,VALID,1007.22,VALID,0,INVALID,110.612,VALID,0,VALID,24.7854,VALID,119,VALID,0,
2014-06-13, 00:35:04,VALID,1007.23,VALID,0,INVALID,110.634,VALID,0,VALID,24.7854,VALID,119,VALID,0,
2014-06-13, 00:36:04,VALID,1007.21,VALID,0,INVALID,110.68,VALID,0,VALID,24.7659,VALID,119,VALID,0,
2014-06-13, 00:37:04,VALID,1007.23,VALID,0,INVALID,110.688,VALID,0,VALID,24.7872,VALID,119,VALID,0,
2014-06-13, 00:38:04,VALID,1007.2,VALID,0,INVALID,110.718,VALID,0,VALID,24.7659,VALID,119,VALID,0,
2014-06-13, 00:39:04,VALID,1007.19,VALID,0,INVALID,110.711,VALID,0,VALID,24.7659,VALID,119,VALID,0,
2014-06-13, 00:40:04,VALID,1007.19,VALID,0,INVALID,110.703,VALID,0,VALID,24.7854,VALID,119,VALID,0.166797,
2014-06-13, 00:41:04,VALID,1007.18,VALID,0,INVALID,110.703,VALID,0.112112,VALID,24.764,VALID,119,VALID,0.250391,
2014-06-13, 00:42:04,VALID,1007.15,VALID,0,INVALID,110.711,VALID,0.112112,VALID,24.7835,VALID,119,VALID,0,
2014-06-13, 00:43:04,VALID,1007.15,VALID,0,INVALID,110.734,VALID,0.112112,VALID,24.8244,VALID,119,VALID,0,
2014-06-13, 00:44:04,VALID,1007.15,VALID,0,INVALID,110.756,VALID,0.112112,VALID,24.8244,VALID,119,VALID,0,
2014-06-13, 00:45:04,VALID,1007.15,VALID,0,INVALID,110.772,VALID,0.112112,VALID,24.803,VALID,119,VALID,0,
2014-06-13, 00:46:04,VALID,1007.13,VALID,0,INVALID,110.756,VALID,0.112112,VALID,24.8244,VALID,119,VALID,0,
2014-06-13, 00:47:04,VALID,1007.12,VALID,0,INVALID,110.772,VALID,0,VALID,24.7835,VALID,119,VALID,0,
2014-06-13, 00:48:04,VALID,1007.11,VALID,0,INVALID,110.772,VALID,0.112112,VALID,24.7835,VALID,119,VALID,0,
2014-06-13, 00:49:04,VALID,1007.09,VALID,0,INVALID,110.772,VALID,0.112112,VALID,24.764,VALID,119,VALID,0,
2014-06-13, 00:50:04,VALID,1007.11,VALID,0,INVALID,110.802,VALID,0.112112,VALID,24.7445,VALID,119,VALID,0,
2014-06-13, 00:51:04,VALID,1007.09,VALID,0,INVALID,110.795,VALID,0.112112,VALID,24.7445,VALID,119,VALID,0,
2014-06-13, 00:52:04,VALID,1007.09,VALID,0,INVALID,110.795,VALID,0.112112,VALID,24.7445,VALID,119,VALID,0,
2014-06-13, 00:53:04,VALID,1007.1,VALID,0,INVALID,110.772,VALID,0.112112,VALID,24.7445,VALID,119,VALID,0,
2014-06-13, 00:54:04,VALID,1007.07,VALID,0,INVALID,110.787,VALID,0.112112,VALID,24.7659,VALID,119,VALID,0,
2014-06-13, 00:55:04,VALID,1007.06,VALID,0,INVALID,110.787,VALID,0,VALID,24.7464,VALID,119,VALID,0,
2014-06-13, 00:56:04,VALID,1007.07,VALID,0,INVALID,110.779,VALID,0,VALID,24.7659,VALID,119,VALID,0,
2014-06-13, 00:57:04,VALID,1007.04,VALID,0,INVALID,110.802,VALID,0,VALID,24.7464,VALID,119,VALID,0,
2014-06-13, 00:58:04,VALID,1007.03,VALID,0,INVALID,110.795,VALID,0,VALID,24.7464,VALID,119,VALID,0,
2014-06-13, 00:59:04,VALID,1007.04,VALID,0,INVALID,110.779,VALID,0,VALID,24.7854,VALID,119,VALID,0,
2014-06-13, 01:00:04,VALID,1007.07,VALID,0,INVALID,110.81,VALID,0,VALID,24.7854,VALID,119,VALID,0,
2014-06-13, 01:01:04,VALID,1007.07,VALID,0,INVALID,110.825,VALID,0,VALID,24.7464,VALID,119,VALID,0.120703,
2014-06-13, 01:02:04,VALID,1007.03,VALID,0,INVALID,110.833,VALID,0,VALID,24.7269,VALID,119,VALID,0.253906,
2014-06-13, 01:03:04,VALID,1007.07,VALID,0,INVALID,110.84,VALID,0,VALID,24.7269,VALID,119,VALID,0.2375,
2014-06-13, 01:04:04,VALID,1007.05,VALID,0,INVALID,110.833,VALID,0,VALID,24.7269,VALID,119,VALID,0.180859,
2014-06-13, 01:05:04,VALID,1007.06,VALID,0,INVALID,110.795,VALID,0,VALID,24.7269,VALID,119,VALID,0,
2014-06-13, 01:06:04,VALID,1007.07,VALID,0,INVALID,110.802,VALID,0,VALID,24.7464,VALID,119,VALID,0,
2014-06-13, 01:07:04,VALID,1007.06,VALID,0,INVALID,110.81,VALID,0,VALID,24.7269,VALID,119,VALID,0,
2014-06-13, 01:08:04,VALID,1007.04,VALID,0,INVALID,110.817,VALID,0,VALID,24.7074,VALID,119,VALID,0,
2014-06-13, 01:09:04,VALID,1007.05,VALID,0,INVALID,110.825,VALID,0,VALID,24.7074,VALID,119,VALID,0,
2014-06-13, 01:10:04,VALID,1007.02,VALID,0,INVALID,110.825,VALID,0.112112,VALID,24.686,VALID,119,VALID,0,
2014-06-13, 01:11:04,VALID,1007.03,VALID,0,INVALID,110.825,VALID,0.112112,VALID,24.7055,VALID,119,VALID,0,
2014-06-13, 01:12:04,VALID,1007,VALID,0,INVALID,110.795,VALID,0.224224,VALID,24.7055,VALID,119,VALID,0,
2014-06-13, 01:13:04,VALID,1007,VALID,0,INVALID,110.802,VALID,0.112112,VALID,24.7445,VALID,119,VALID,0.207422,
2014-06-13, 01:14:04,VALID,1006.95,VALID,0,INVALID,110.741,VALID,0.112112,VALID,24.7835,VALID,119,VALID,0.136328,
2014-06-13, 01:15:04,VALID,1006.97,VALID,0,INVALID,110.726,VALID,0.112112,VALID,24.8225,VALID,119,VALID,0,
2014-06-13, 01:16:04,VALID,1006.95,VALID,0,INVALID,110.764,VALID,0.112112,VALID,24.8225,VALID,119,VALID,0,
2014-06-13, 01:17:04,VALID,1006.94,VALID,0,INVALID,110.817,VALID,0.112112,VALID,24.7835,VALID,119,VALID,0,
2014-06-13, 01:18:04,VALID,1006.93,VALID,0,INVALID,110.817,VALID,0.112112,VALID,24.764,VALID,119,VALID,0,
2014-06-13, 01:19:04,VALID,1006.93,VALID,0,INVALID,110.856,VALID,0,VALID,24.725,VALID,119,VALID,0,
2014-06-13, 01:20:04,VALID,1006.91,VALID,0,INVALID,110.848,VALID,0.112112,VALID,24.725,VALID,119,VALID,0,
2014-06-13, 01:21:04,VALID,1006.9,VALID,0,INVALID,110.848,VALID,0.112112,VALID,24.6842,VALID,119,VALID,0,
2014-06-13, 01:22:04,VALID,1006.9,VALID,0,INVALID,110.878,VALID,0.224224,VALID,24.686,VALID,119,VALID,0.125781,
2014-06-13, 01:23:04,VALID,1006.88,VALID,0,INVALID,110.848,VALID,0.112112,VALID,24.6666,VALID,119,VALID,0.149609,
2014-06-13, 01:24:04,VALID,1006.87,VALID,0,INVALID,110.878,VALID,0.112112,VALID,24.6471,VALID,119,VALID,0.00351562,
2014-06-13, 01:25:04,VALID,1006.87,VALID,0,INVALID,110.863,VALID,0,VALID,24.6703,VALID,119,VALID,0,
2014-06-13, 01:26:04,VALID,1006.87,VALID,0,INVALID,110.833,VALID,0,VALID,24.6508,VALID,119,VALID,0,
2014-06-13, 01:27:04,VALID,1006.84,VALID,0,INVALID,110.802,VALID,0,VALID,24.6684,VALID,119,VALID,0,
2014-06-13, 01:28:04,VALID,1006.83,VALID,0,INVALID,110.795,VALID,0,VALID,24.6898,VALID,119,VALID,0,
2014-06-13, 01:29:04,VALID,1006.82,VALID,0,INVALID,110.756,VALID,0,VALID,24.7483,VALID,119,VALID,0,
2014-06-13, 01:30:04,VALID,1006.79,VALID,0,INVALID,110.741,VALID,0,VALID,24.7483,VALID,119,VALID,0,
2014-06-13, 01:31:04,VALID,1006.77,VALID,0,INVALID,110.772,VALID,0,VALID,24.7483,VALID,119,VALID,0,
2014-06-13, 01:32:04,VALID,1006.8,VALID,0,INVALID,110.802,VALID,0,VALID,24.7288,VALID,119,VALID,0,
2014-06-13, 01:33:04,VALID,1006.79,VALID,0,INVALID,110.817,VALID,0,VALID,24.6879,VALID,119,VALID,0,
2014-06-13, 01:34:04,VALID,1006.77,VALID,0,INVALID,110.802,VALID,0,VALID,24.6684,VALID,119,VALID,0,
2014-06-13, 01:35:04,VALID,1006.82,VALID,0,INVALID,110.802,VALID,0,VALID,24.6684,VALID,119,VALID,0,
2014-06-13, 01:36:04,VALID,1006.76,VALID,0,INVALID,110.795,VALID,0,VALID,24.6684,VALID,119,VALID,0,
2014-06-13, 01:37:04,VALID,1006.77,VALID,0,INVALID,110.741,VALID,0,VALID,24.6898,VALID,119,VALID,0,
2014-06-13, 01:38:04,VALID,1006.72,VALID,0,INVALID,110.779,VALID,0,VALID,24.7074,VALID,119,VALID,0.111719,
2014-06-13, 01:39:04,VALID,1006.72,VALID,0,INVALID,110.779,VALID,0,VALID,24.7093,VALID,119,VALID,0.268359,
2014-06-13, 01:40:04,VALID,1006.69,VALID,0,INVALID,110.741,VALID,0,VALID,24.6879,VALID,119,VALID,0.372656,
2014-06-13, 01:41:04,VALID,1006.69,VALID,0,INVALID,110.718,VALID,0,VALID,24.7288,VALID,119,VALID,0.355859,
2014-06-13, 01:42:04,VALID,1006.68,VALID,0,INVALID,110.734,VALID,0,VALID,24.7074,VALID,119,VALID,0.334766,
2014-06-13, 01:43:04,VALID,1006.68,VALID,0,INVALID,110.711,VALID,0,VALID,24.7288,VALID,119,VALID,0.146875,
2014-06-13, 01:44:04,VALID,1006.66,VALID,0,INVALID,110.749,VALID,0,VALID,24.7288,VALID,119,VALID,0.00585938,
2014-06-13, 01:45:04,VALID,1006.66,VALID,0,INVALID,110.726,VALID,0,VALID,24.7074,VALID,119,VALID,0,
2014-06-13, 01:46:04,VALID,1006.62,VALID,0,INVALID,110.764,VALID,0,VALID,24.6879,VALID,119,VALID,0,
2014-06-13, 01:47:04,VALID,1006.61,VALID,0,INVALID,110.756,VALID,0,VALID,24.6879,VALID,119,VALID,0,
2014-06-13, 01:48:04,VALID,1006.6,VALID,0,INVALID,110.749,VALID,0,VALID,24.6684,VALID,119,VALID,0,
2014-06-13, 01:49:04,VALID,1006.61,VALID,0,INVALID,110.795,VALID,0,VALID,24.6703,VALID,119,VALID,0,
2014-06-13, 01:50:04,VALID,1006.59,VALID,0,INVALID,110.764,VALID,0,VALID,24.6489,VALID,119,VALID,0,
2014-06-13, 01:51:04,VALID,1006.57,VALID,0,INVALID,110.795,VALID,0,VALID,24.6489,VALID,119,VALID,0,
2014-06-13, 01:52:04,VALID,1006.56,VALID,0,INVALID,110.772,VALID,0,VALID,24.6703,VALID,119,VALID,0,
2014-06-13, 01:53:04,VALID,1006.52,VALID,0,INVALID,110.772,VALID,0,VALID,24.6703,VALID,119,VALID,0,
2014-06-13, 01:54:04,VALID,1006.52,VALID,0,INVALID,110.779,VALID,0,VALID,24.6489,VALID,119,VALID,0,
2014-06-13, 01:55:04,VALID,1006.51,VALID,0,INVALID,110.795,VALID,0.112112,VALID,24.6489,VALID,119,VALID,0,
2014-06-13, 01:56:04,VALID,1006.51,VALID,0,INVALID,110.764,VALID,0.112112,VALID,24.6489,VALID,119,VALID,0,
2014-06-13, 01:57:04,VALID,1006.5,VALID,0,INVALID,110.764,VALID,0.112112,VALID,24.6276,VALID,119,VALID,0,
2014-06-13, 01:58:04,VALID,1006.48,VALID,0,INVALID,110.772,VALID,0.112112,VALID,24.6276,VALID,119,VALID,0,
2014-06-13, 01:59:04,VALID,1006.49,VALID,0,INVALID,110.779,VALID,0.112112,VALID,24.6294,VALID,119,VALID,0,
2014-06-13, 02:00:04,VALID,1006.45,VALID,0,INVALID,110.726,VALID,0.112112,VALID,24.6489,VALID,119,VALID,0.130859,
2014-06-13, 02:01:04,VALID,1006.46,VALID,0,INVALID,110.779,VALID,0.112112,VALID,24.6684,VALID,119,VALID,0,
2014-06-13, 02:02:04,VALID,1006.48,VALID,0,INVALID,110.711,VALID,0.112112,VALID,24.6489,VALID,119,VALID,0,
2014-06-13, 02:03:04,VALID,1006.47,VALID,0,INVALID,110.741,VALID,0.112112,VALID,24.6489,VALID,119,VALID,0,
2014-06-13, 02:04:04,VALID,1006.45,VALID,0,INVALID,110.688,VALID,0,VALID,24.6489,VALID,119,VALID,0,
2014-06-13, 02:05:04,VALID,1006.43,VALID,0,INVALID,110.673,VALID,0.112112,VALID,24.6276,VALID,119,VALID,0,
2014-06-13, 02:06:04,VALID,1006.42,VALID,0,INVALID,110.695,VALID,0.112112,VALID,24.6276,VALID,119,VALID,0,
2014-06-13, 02:07:04,VALID,1006.41,VALID,0,INVALID,110.711,VALID,0.112112,VALID,24.6081,VALID,119,VALID,0,
2014-06-13, 02:08:04,VALID,1006.38,VALID,0,INVALID,110.734,VALID,0.112112,VALID,24.6294,VALID,119,VALID,0,
2014-06-13, 02:09:04,VALID,1006.41,VALID,0,INVALID,110.741,VALID,0.112112,VALID,24.5886,VALID,119,VALID,0,
2014-06-13, 02:10:04,VALID,1006.39,VALID,0,INVALID,110.749,VALID,0,VALID,24.571,VALID,119,VALID,0,
2014-06-13, 02:11:04,VALID,1006.36,VALID,0,INVALID,110.749,VALID,0,VALID,24.5728,VALID,119,VALID,0,
2014-06-13, 02:12:04,VALID,1006.35,VALID,0,INVALID,110.749,VALID,0,VALID,24.5728,VALID,119,VALID,0,
2014-06-13, 02:13:04,VALID,1006.34,VALID,0,INVALID,110.741,VALID,0,VALID,24.5728,VALID,119,VALID,0,
2014-06-13, 02:14:04,VALID,1006.33,VALID,0,INVALID,110.749,VALID,0,VALID,24.532,VALID,119,VALID,0,
2014-06-13, 02:15:04,VALID,1006.32,VALID,0,INVALID,110.734,VALID,0,VALID,24.5533,VALID,119,VALID,0,
2014-06-13, 02:16:04,VALID,1006.34,VALID,0,INVALID,110.741,VALID,0,VALID,24.532,VALID,119,VALID,0,
2014-06-13, 02:17:04,VALID,1006.32,VALID,0,INVALID,110.726,VALID,0,VALID,24.5125,VALID,119,VALID,0,
2014-06-13, 02:18:04,VALID,1006.34,VALID,0,INVALID,110.703,VALID,0,VALID,24.532,VALID,119,VALID,0,
2014-06-13, 02:19:04,VALID,1006.33,VALID,0,INVALID,110.695,VALID,0,VALID,24.5338,VALID,119,VALID,0,
2014-06-13, 02:20:04,VALID,1006.37,VALID,0,INVALID,110.734,VALID,0,VALID,24.4949,VALID,119,VALID,0,
2014-06-13, 02:21:04,VALID,1006.35,VALID,0,INVALID,110.764,VALID,0,VALID,24.4949,VALID,119,VALID,0,
2014-06-13, 02:22:04,VALID,1006.39,VALID,0,INVALID,110.779,VALID,0,VALID,24.4754,VALID,119,VALID,0,
2014-06-13, 02:23:04,VALID,1006.35,VALID,0,INVALID,110.734,VALID,0,VALID,24.4754,VALID,119,VALID,0,
2014-06-13, 02:24:04,VALID,1006.37,VALID,0,INVALID,110.734,VALID,0,VALID,24.4754,VALID,119,VALID,0,
2014-06-13, 02:25:04,VALID,1006.35,VALID,0,INVALID,110.718,VALID,0.112112,VALID,24.4522,VALID,119,VALID,0,
2014-06-13, 02:26:04,VALID,1006.36,VALID,0,INVALID,110.711,VALID,0.112112,VALID,24.4522,VALID,119,VALID,0,
2014-06-13, 02:27:04,VALID,1006.35,VALID,0,INVALID,110.703,VALID,0.112112,VALID,24.4522,VALID,119,VALID,0,
2014-06-13, 02:28:04,VALID,1006.34,VALID,0,INVALID,110.695,VALID,0.112112,VALID,24.4522,VALID,119,VALID,0,
2014-06-13, 02:29:04,VALID,1006.3,VALID,0,INVALID,110.673,VALID,0.112112,VALID,24.4522,VALID,119,VALID,0,
2014-06-13, 02:30:04,VALID,1006.34,VALID,0,INVALID,110.688,VALID,0.112112,VALID,24.4327,VALID,119,VALID,0,
2014-06-13, 02:31:04,VALID,1006.33,VALID,0,INVALID,110.688,VALID,0.112112,VALID,24.4327,VALID,119,VALID,0,
2014-06-13, 02:32:04,VALID,1006.36,VALID,0,INVALID,110.741,VALID,0.112112,VALID,24.4132,VALID,119,VALID,0,
2014-06-13, 02:33:04,VALID,1006.35,VALID,0,INVALID,110.68,VALID,0,VALID,24.415,VALID,119,VALID,0,
2014-06-13, 02:34:04,VALID,1006.35,VALID,0,INVALID,110.718,VALID,0.112112,VALID,24.415,VALID,119,VALID,0,
2014-06-13, 02:35:04,VALID,1006.33,VALID,0,INVALID,110.695,VALID,0.112112,VALID,24.3937,VALID,119,VALID,0,
2014-06-13, 02:36:04,VALID,1006.33,VALID,0,INVALID,110.703,VALID,0.112112,VALID,24.3956,VALID,119,VALID,0,
2014-06-13, 02:37:04,VALID,1006.34,VALID,0,INVALID,110.688,VALID,0.112112,VALID,24.415,VALID,119,VALID,0,
2014-06-13, 02:38:04,VALID,1006.33,VALID,0,INVALID,110.673,VALID,0.112112,VALID,24.3937,VALID,119,VALID,0,
2014-06-13, 02:39:04,VALID,1006.33,VALID,0,INVALID,110.673,VALID,0.112112,VALID,24.3937,VALID,119,VALID,0,
2014-06-13, 02:40:04,VALID,1006.33,VALID,0,INVALID,110.634,VALID,0,VALID,24.3956,VALID,119,VALID,0,
2014-06-13, 02:41:04,VALID,1006.28,VALID,0,INVALID,110.65,VALID,0,VALID,24.3956,VALID,119,VALID,0,
2014-06-13, 02:42:04,VALID,1006.3,VALID,0,INVALID,110.642,VALID,0,VALID,24.3956,VALID,119,VALID,0,
2014-06-13, 02:43:04,VALID,1006.24,VALID,0,INVALID,110.619,VALID,0,VALID,24.4169,VALID,119,VALID,0,
2014-06-13, 02:44:04,VALID,1006.23,VALID,0,INVALID,110.665,VALID,0,VALID,24.3956,VALID,119,VALID,0,
2014-06-13, 02:45:04,VALID,1006.23,VALID,0,INVALID,110.627,VALID,0,VALID,24.3956,VALID,119,VALID,0,
2014-06-13, 02:46:04,VALID,1006.22,VALID,0,INVALID,110.619,VALID,0,VALID,24.3956,VALID,119,VALID,0,
2014-06-13, 02:47:04,VALID,1006.22,VALID,0,INVALID,110.612,VALID,0,VALID,24.3956,VALID,119,VALID,0,
2014-06-13, 02:48:04,VALID,1006.2,VALID,0,INVALID,110.573,VALID,0,VALID,24.4345,VALID,119,VALID,0,
2014-06-13, 02:49:04,VALID,1006.21,VALID,0,INVALID,110.535,VALID,0,VALID,24.4345,VALID,119,VALID,0,
2014-06-13, 02:50:04,VALID,1006.2,VALID,0,INVALID,110.558,VALID,0,VALID,24.454,VALID,119,VALID,0,
2014-06-13, 02:51:04,VALID,1006.2,VALID,0,INVALID,110.566,VALID,0,VALID,24.4559,VALID,119,VALID,0,
2014-06-13, 02:52:04,VALID,1006.18,VALID,0,INVALID,110.558,VALID,0,VALID,24.4345,VALID,119,VALID,0,
2014-06-13, 02:53:04,VALID,1006.15,VALID,0,INVALID,110.612,VALID,0,VALID,24.415,VALID,119,VALID,0,
2014-06-13, 02:54:04,VALID,1006.17,VALID,0,INVALID,110.596,VALID,0,VALID,24.3956,VALID,119,VALID,0,
2014-06-13, 02:55:04,VALID,1006.13,VALID,0,INVALID,110.619,VALID,0,VALID,24.3956,VALID,119,VALID,0,
2014-06-13, 02:56:04,VALID,1006.11,VALID,0,INVALID,110.612,VALID,0,VALID,24.415,VALID,119,VALID,0,
2014-06-13, 02:57:04,VALID,1006.07,VALID,0,INVALID,110.604,VALID,0,VALID,24.3956,VALID,119,VALID,0,
2014-06-13, 02:58:04,VALID,1006.08,VALID,0,INVALID,110.627,VALID,0,VALID,24.4169,VALID,119,VALID,0,
2014-06-13, 02:59:04,VALID,1006.05,VALID,0,INVALID,110.642,VALID,0,VALID,24.3974,VALID,119,VALID,0,
2014-06-13, 03:00:04,VALID,1006.08,VALID,0,INVALID,110.596,VALID,0,VALID,24.3974,VALID,119,VALID,0,
2014-06-13, 03:01:04,VALID,1006.12,VALID,0,INVALID,110.634,VALID,0,VALID,24.3974,VALID,119,VALID,0,
2014-06-13, 03:02:05,VALID,1006.11,VALID,0,INVALID,110.673,VALID,0,VALID,24.3566,VALID,119,VALID,0,
2014-06-13, 03:03:05,VALID,1006.12,VALID,0,INVALID,110.634,VALID,0,VALID,24.3779,VALID,119,VALID,0,
2014-06-13, 03:04:05,VALID,1006.16,VALID,0,INVALID,110.634,VALID,0,VALID,24.3566,VALID,119,VALID,0,
2014-06-13, 03:05:05,VALID,1006.12,VALID,0,INVALID,110.657,VALID,0,VALID,24.3371,VALID,119,VALID,0,
2014-06-13, 03:06:05,VALID,1006.14,VALID,0,INVALID,110.65,VALID,0,VALID,24.3584,VALID,119,VALID,0,
2014-06-13, 03:07:05,VALID,1006.13,VALID,0,INVALID,110.657,VALID,0,VALID,24.3371,VALID,119,VALID,0,
2014-06-13, 03:08:05,VALID,1006.11,VALID,0,INVALID,110.627,VALID,0,VALID,24.3371,VALID,119,VALID,0,
2014-06-13, 03:09:05,VALID,1006.11,VALID,0,INVALID,110.612,VALID,0,VALID,24.3566,VALID,119,VALID,0,
2014-06-13, 03:10:05,VALID,1006.12,VALID,0,INVALID,110.634,VALID,0,VALID,24.3779,VALID,119,VALID,0,
2014-06-13, 03:11:05,VALID,1006.1,VALID,0,INVALID,110.589,VALID,0,VALID,24.3584,VALID,119,VALID,0,
2014-06-13, 03:12:05,VALID,1006.08,VALID,0,INVALID,110.665,VALID,0,VALID,24.3389,VALID,119,VALID,0,
2014-06-13, 03:13:05,VALID,1006.11,VALID,0,INVALID,110.619,VALID,0,VALID,24.3176,VALID,119,VALID,0,
2014-06-13, 03:14:05,VALID,1006.12,VALID,0,INVALID,110.619,VALID,0,VALID,24.3194,VALID,119,VALID,0,
2014-06-13, 03:15:05,VALID,1006.09,VALID,0,INVALID,110.657,VALID,0,VALID,24.2981,VALID,119,VALID,0,
2014-06-13, 03:16:05,VALID,1006.1,VALID,0,INVALID,110.657,VALID,0,VALID,24.3194,VALID,119,VALID,0,
2014-06-13, 03:17:05,VALID,1006.09,VALID,0,INVALID,110.665,VALID,0,VALID,24.3194,VALID,119,VALID,0,
2014-06-13, 03:18:05,VALID,1006.1,VALID,0,INVALID,110.65,VALID,0,VALID,24.3,VALID,119,VALID,0,
2014-06-13, 03:19:05,VALID,1006.11,VALID,0,INVALID,110.65,VALID,0,VALID,24.3,VALID,119,VALID,0,
2014-06-13, 03:20:05,VALID,1006.12,VALID,0,INVALID,110.612,VALID,0,VALID,24.3,VALID,119,VALID,0,
2014-06-13, 03:21:05,VALID,1006.1,VALID,0,INVALID,110.619,VALID,0,VALID,24.3194,VALID,119,VALID,0,
2014-06-13, 03:22:05,VALID,1006.09,VALID,0,INVALID,110.566,VALID,0,VALID,24.3176,VALID,119,VALID,0,
2014-06-13, 03:23:05,VALID,1006.07,VALID,0,INVALID,110.573,VALID,0,VALID,24.3584,VALID,119,VALID,0,
2014-06-13, 03:24:05,VALID,1006.09,VALID,0,INVALID,110.581,VALID,0,VALID,24.3389,VALID,119,VALID,0,
2014-06-13, 03:25:05,VALID,1006.07,VALID,0,INVALID,110.543,VALID,0,VALID,24.3371,VALID,119,VALID,0,
2014-06-13, 03:26:05,VALID,1006.06,VALID,0,INVALID,110.535,VALID,0,VALID,24.3566,VALID,119,VALID,0,
2014-06-13, 03:27:05,VALID,1006.05,VALID,0,INVALID,110.566,VALID,0,VALID,24.3389,VALID,119,VALID,0,
2014-06-13, 03:28:05,VALID,1006.03,VALID,0,INVALID,110.558,VALID,0,VALID,24.3389,VALID,119,VALID,0,
2014-06-13, 03:29:05,VALID,1006.04,VALID,0,INVALID,110.581,VALID,0,VALID,24.3194,VALID,119,VALID,0,
2014-06-13, 03:30:05,VALID,1006.04,VALID,0,INVALID,110.589,VALID,0,VALID,24.3,VALID,119,VALID,0,
2014-06-13, 03:31:05,VALID,1006.04,VALID,0,INVALID,110.596,VALID,0,VALID,24.2786,VALID,119,VALID,0,
2014-06-13, 03:32:05,VALID,1006.02,VALID,0,INVALID,110.619,VALID,0,VALID,24.2805,VALID,119,VALID,0,
2014-06-13, 03:33:05,VALID,1006.02,VALID,0,INVALID,110.581,VALID,0,VALID,24.2591,VALID,119,VALID,0,
2014-06-13, 03:34:05,VALID,1006,VALID,0,INVALID,110.573,VALID,0,VALID,24.261,VALID,119,VALID,0,
2014-06-13, 03:35:05,VALID,1006.02,VALID,0,INVALID,110.589,VALID,0,VALID,24.2591,VALID,119,VALID,0,
2014-06-13, 03:36:05,VALID,1006.04,VALID,0,INVALID,110.558,VALID,0,VALID,24.2396,VALID,119,VALID,0,
2014-06-13, 03:37:05,VALID,1006.05,VALID,0,INVALID,110.558,VALID,0,VALID,24.261,VALID,119,VALID,0,
2014-06-13, 03:38:05,VALID,1006.06,VALID,0,INVALID,110.543,VALID,0,VALID,24.2591,VALID,119,VALID,0,
2014-06-13, 03:39:05,VALID,1006.05,VALID,0,INVALID,110.573,VALID,0,VALID,24.261,VALID,119,VALID,0,
2014-06-13, 03:40:05,VALID,1006.12,VALID,0,INVALID,110.558,VALID,0,VALID,24.261,VALID,119,VALID,0,
2014-06-13, 03:41:05,VALID,1006.09,VALID,0,INVALID,110.573,VALID,0,VALID,24.261,VALID,119,VALID,0,
2014-06-13, 03:42:05,VALID,1006.05,VALID,0,INVALID,110.573,VALID,0,VALID,24.2202,VALID,119,VALID,0,
2014-06-13, 03:43:05,VALID,1006.07,VALID,0,INVALID,110.604,VALID,0,VALID,24.222,VALID,119,VALID,0,
2014-06-13, 03:44:05,VALID,1006.06,VALID,0,INVALID,110.589,VALID,0,VALID,24.222,VALID,119,VALID,0,
2014-06-13, 03:45:05,VALID,1006.06,VALID,0,INVALID,110.604,VALID,0,VALID,24.183,VALID,119,VALID,0,
2014-06-13, 03:46:05,VALID,1006.06,VALID,0,INVALID,110.604,VALID,0,VALID,24.183,VALID,119,VALID,0,
2014-06-13, 03:47:05,VALID,1006.06,VALID,0,INVALID,110.612,VALID,0,VALID,24.183,VALID,119,VALID,0,
2014-06-13, 03:48:05,VALID,1006.07,VALID,0,INVALID,110.604,VALID,0,VALID,24.183,VALID,119,VALID,0,